{"data":{"norad_id":67292,"epoch":"2026-05-25T02:44:40.178688Z","epoch_age_seconds":65474,"freshness":"FRESH","line1":"1 67292U 25313AW  26145.11435392  .00009100  00000+0  37238-3 0  9991","line2":"2 67292  97.3940 220.4750 0010517  81.4389 278.8040 15.24500277 22463","mean_motion":15.24500277,"eccentricity":0.0010517,"inclination_deg":97.394,"raan_deg":220.475,"arg_perigee_deg":81.4389,"mean_anomaly_deg":278.804,"bstar":0.00037238,"rev_number":2246,"period_min":94.457181918898,"perigee_km":485.06079137028,"apogee_km":499.51203998281,"semimajor_km":6870.4234156765,"source":"CELESTRAK","updated_at":"2026-05-25T13:38:06.856604Z"}}